Retour au catalogue

FENGYUN 1C DEB

LostSSO
NORAD 32313·DEBRIS·🇨🇳 China

Lancé May 10, 1999 depuis Taiyuan Satellite Launch Center

Loading…

Prochains Passages (prochaines 24 heures)

TLE

PériméSource: Space-Track

Époque: Jun 2, 2025, 21:49 UTC

1 32313U 99025CXE 25153.90916681  .00003249  00000-0  19033-2 0  9999
2 32313  99.0304 222.9236 0130999 243.8326 114.9320 14.04751176908580

Suivez FENGYUN 1C DEB en temps réel avec AllMySat

Download on the App Store